Time,TemperatureF,DewpointF,PressureIn,WindDirection,WindDirectionDegrees,WindSpeedMPH,WindSpeedGustMPH,Humidity,HourlyPrecipIn,Conditions,Clouds,dailyrainin,SolarRadiationWatts/m^2,SoftwareType,DateUTC
2013-09-30 00:12:00,52.0,46.0,-100.00,South,182,25.0,38.0,81,0.00,,,0.01,0.000000,,2013-09-30 07:12:00,
2013-09-30 00:21:00,52.0,46.0,-100.00,South,182,25.0,38.0,81,0.00,,,0.01,0.000000,,2013-09-30 07:21:00,
2013-09-30 00:32:00,52.0,46.0,-100.00,South,182,25.0,38.0,81,0.00,,,0.01,0.000000,,2013-09-30 07:32:00,
2013-09-30 01:12:00,52.0,48.0,-100.00,South,182,13.0,37.0,85,0.02,,,0.02,0.000000,,2013-09-30 08:12:00,
2013-09-30 01:22:00,52.0,48.0,-100.00,South,182,13.0,37.0,85,0.02,,,0.02,0.000000,,2013-09-30 08:22:00,
2013-09-30 01:32:00,52.0,48.0,-100.00,South,182,13.0,37.0,85,0.02,,,0.02,0.000000,,2013-09-30 08:32:00,
2013-09-30 02:11:00,52.0,47.0,-100.00,South,182,17.0,35.0,82,0.00,,,0.02,0.000000,,2013-09-30 09:11:00,
2013-09-30 02:22:00,52.0,47.0,-100.00,South,182,17.0,35.0,82,0.00,,,0.02,0.000000,,2013-09-30 09:22:00,
2013-09-30 02:33:00,52.0,47.0,-100.00,South,182,17.0,35.0,82,0.00,,,0.02,0.000000,,2013-09-30 09:33:00,
2013-09-30 03:13:00,51.0,41.0,-100.00,South,182,14.0,34.0,68,0.00,,,0.02,0.000000,,2013-09-30 10:13:00,
2013-09-30 03:22:00,51.0,41.0,-100.00,South,182,14.0,34.0,68,0.00,,,0.02,0.000000,,2013-09-30 10:22:00,
2013-09-30 03:32:00,51.0,41.0,-100.00,South,182,14.0,34.0,68,0.00,,,0.02,0.000000,,2013-09-30 10:32:00,
2013-09-30 04:12:00,49.0,37.0,-100.00,South,181,10.0,24.0,62,0.00,,,0.02,0.000000,,2013-09-30 11:12:00,
2013-09-30 04:22:00,49.0,37.0,-100.00,South,181,10.0,24.0,62,0.00,,,0.02,0.000000,,2013-09-30 11:22:00,
2013-09-30 04:32:00,49.0,37.0,-100.00,South,181,10.0,24.0,62,0.00,,,0.02,0.000000,,2013-09-30 11:32:00,
2013-09-30 05:12:00,46.0,32.0,-100.00,South,182,13.0,23.0,59,0.00,,,0.02,0.000000,,2013-09-30 12:12:00,
2013-09-30 05:22:00,46.0,32.0,-100.00,South,182,13.0,23.0,59,0.00,,,0.02,0.000000,,2013-09-30 12:22:00,
2013-09-30 05:31:00,46.0,32.0,-100.00,South,182,13.0,23.0,59,0.00,,,0.02,0.000000,,2013-09-30 12:31:00,
2013-09-30 06:11:00,46.0,32.0,-100.00,South,182,17.0,24.0,59,0.00,,,0.02,0.000000,,2013-09-30 13:11:00,
2013-09-30 06:22:00,46.0,32.0,-100.00,South,182,17.0,24.0,59,0.00,,,0.02,0.000000,,2013-09-30 13:22:00,
2013-09-30 06:32:00,46.0,32.0,-100.00,South,182,17.0,24.0,59,0.00,,,0.02,0.000000,,2013-09-30 13:32:00,
2013-09-30 07:11:00,45.0,34.0,-100.00,South,182,16.0,28.0,65,0.00,,,0.02,0.000000,,2013-09-30 14:11:00,
2013-09-30 07:22:00,45.0,34.0,-100.00,South,182,16.0,28.0,65,0.00,,,0.02,0.000000,,2013-09-30 14:22:00,
2013-09-30 07:32:00,45.0,34.0,-100.00,South,182,16.0,28.0,65,0.00,,,0.02,0.000000,,2013-09-30 14:32:00,
2013-09-30 08:11:00,45.0,35.0,-100.00,South,181,3.0,19.0,69,0.00,,,0.02,9.000000,,2013-09-30 15:11:00,
2013-09-30 08:22:00,45.0,35.0,-100.00,South,181,3.0,19.0,69,0.00,,,0.02,9.000000,,2013-09-30 15:22:00,
2013-09-30 08:34:00,45.0,35.0,-100.00,South,181,3.0,19.0,69,0.00,,,0.02,9.000000,,2013-09-30 15:34:00,
2013-09-30 09:14:00,49.0,36.0,-100.00,South,182,18.0,28.0,61,0.00,,,0.02,218.000000,,2013-09-30 16:14:00,
2013-09-30 09:24:00,49.0,36.0,-100.00,South,182,18.0,28.0,61,0.00,,,0.02,218.000000,,2013-09-30 16:24:00,
2013-09-30 09:34:00,49.0,36.0,-100.00,South,182,18.0,28.0,61,0.00,,,0.02,218.000000,,2013-09-30 16:34:00,
2013-09-30 10:13:00,52.0,40.0,-100.00,South,182,17.0,32.0,63,0.00,,,0.02,357.000000,,2013-09-30 17:13:00,
2013-09-30 10:22:00,52.0,40.0,-100.00,South,182,17.0,32.0,63,0.00,,,0.02,357.000000,,2013-09-30 17:22:00,
2013-09-30 10:33:00,52.0,40.0,-100.00,South,182,17.0,32.0,63,0.00,,,0.02,357.000000,,2013-09-30 17:33:00,
2013-09-30 11:12:00,52.0,39.0,-100.00,South,182,13.0,26.0,62,0.00,,,0.02,204.000000,,2013-09-30 18:12:00,
2013-09-30 11:22:00,52.0,39.0,-100.00,South,182,13.0,26.0,62,0.00,,,0.02,204.000000,,2013-09-30 18:22:00,
2013-09-30 11:32:00,52.0,39.0,-100.00,South,182,13.0,26.0,62,0.00,,,0.02,204.000000,,2013-09-30 18:32:00,
2013-09-30 12:12:00,55.0,39.0,-100.00,South,182,19.0,28.0,54,0.00,,,0.02,367.000000,,2013-09-30 19:12:00,
2013-09-30 12:22:00,55.0,39.0,-100.00,South,182,19.0,28.0,54,0.00,,,0.02,367.000000,,2013-09-30 19:22:00,
2013-09-30 12:32:00,55.0,39.0,-100.00,South,182,19.0,28.0,54,0.00,,,0.02,367.000000,,2013-09-30 19:32:00,
2013-09-30 13:12:00,59.0,36.0,-100.00,South,182,25.0,36.0,42,0.00,,,0.02,910.000000,,2013-09-30 20:12:00,
2013-09-30 13:23:00,59.0,36.0,-100.00,South,182,25.0,36.0,42,0.00,,,0.02,910.000000,,2013-09-30 20:23:00,
2013-09-30 13:33:00,59.0,36.0,-100.00,South,182,25.0,36.0,42,0.00,,,0.02,910.000000,,2013-09-30 20:33:00,
2013-09-30 14:11:00,62.0,37.0,-100.00,South,182,20.0,36.0,39,0.00,,,0.02,824.000000,,2013-09-30 21:11:00,
2013-09-30 14:22:00,62.0,37.0,-100.00,South,182,20.0,36.0,39,0.00,,,0.02,824.000000,,2013-09-30 21:22:00,
2013-09-30 14:34:00,62.0,37.0,-100.00,South,182,20.0,36.0,39,0.00,,,0.02,824.000000,,2013-09-30 21:34:00,
2013-09-30 15:13:00,60.0,33.0,-100.00,South,182,19.0,30.0,36,0.00,,,0.02,476.000000,,2013-09-30 22:13:00,
2013-09-30 15:23:00,60.0,33.0,-100.00,South,182,19.0,30.0,36,0.00,,,0.02,476.000000,,2013-09-30 22:23:00,
2013-09-30 15:34:00,60.0,33.0,-100.00,South,182,19.0,30.0,36,0.00,,,0.02,476.000000,,2013-09-30 22:34:00,
2013-09-30 16:12:00,63.0,35.0,-100.00,South,182,14.0,33.0,35,0.00,,,-99.99,420.000000,,2013-09-30 23:12:00,
2013-09-30 16:23:00,63.0,35.0,-100.00,South,182,14.0,33.0,35,0.00,,,-99.99,420.000000,,2013-09-30 23:23:00,
2013-09-30 16:34:00,63.0,35.0,-100.00,South,182,14.0,33.0,35,0.00,,,-99.99,420.000000,,2013-09-30 23:34:00,
2013-09-30 17:12:00,62.0,37.0,-100.00,South,182,11.0,26.0,40,0.00,,,0.02,431.000000,,2013-10-01 00:12:00,
2013-09-30 17:22:00,62.0,37.0,-100.00,South,182,11.0,26.0,40,0.00,,,0.02,431.000000,,2013-10-01 00:22:00,
2013-09-30 17:32:00,62.0,37.0,-100.00,South,182,11.0,26.0,40,0.00,,,0.02,431.000000,,2013-10-01 00:32:00,
2013-09-30 18:12:00,61.0,34.0,-100.00,South,182,16.0,29.0,36,0.00,,,0.02,196.000000,,2013-10-01 01:12:00,
2013-09-30 18:21:00,61.0,34.0,-100.00,South,182,16.0,29.0,36,0.00,,,0.02,196.000000,,2013-10-01 01:21:00,
2013-09-30 18:32:00,61.0,34.0,-100.00,South,182,16.0,29.0,36,0.00,,,0.02,196.000000,,2013-10-01 01:32:00,
2013-09-30 19:12:00,58.0,34.0,-100.00,South,182,12.0,29.0,41,0.00,,,0.02,36.000000,,2013-10-01 02:12:00,
2013-09-30 19:22:00,58.0,34.0,-100.00,South,182,12.0,29.0,41,0.00,,,0.02,36.000000,,2013-10-01 02:22:00,
2013-09-30 19:33:00,58.0,34.0,-100.00,South,182,12.0,29.0,41,0.00,,,0.02,36.000000,,2013-10-01 02:33:00,
2013-09-30 20:12:00,54.0,35.0,-100.00,South,182,9.0,19.0,48,0.00,,,0.02,0.000000,,2013-10-01 03:12:00,
2013-09-30 20:22:00,54.0,35.0,-100.00,South,182,9.0,19.0,48,0.00,,,0.02,0.000000,,2013-10-01 03:22:00,
2013-09-30 20:34:00,54.0,35.0,-100.00,South,182,9.0,19.0,48,0.00,,,0.02,0.000000,,2013-10-01 03:34:00,
2013-09-30 21:14:00,55.0,34.0,-100.00,South,182,12.0,24.0,45,0.00,,,0.02,0.000000,,2013-10-01 04:14:00,
2013-09-30 21:24:00,55.0,34.0,-100.00,South,182,12.0,24.0,45,0.00,,,0.02,0.000000,,2013-10-01 04:24:00,